{"data":{"norad_id":61631,"intl_designator":"2024-191L","name":"STARLINK-32348","alt_names":[],"object_type":"PAYLOAD","status":"ACTIVE","operator":null,"country":"US","launch_date":"2024-10-23","launch_site_code":"AFETR","launch_vehicle":null,"mission":null,"orbit_class":"UNKNOWN","rcs_meters":null,"size_class":null,"mass_kg":null,"dimensions":null,"purposes":["comms"],"wikipedia_slug":null,"has_3d_model":false,"image_url":null,"decayed_at":null,"tle_current":{"epoch":"2026-09-21T01:16:24.434112Z","epoch_age_seconds":144291,"freshness":"FRESH","line1":"1 61631U 24191L   26264.05306058  .00000573  00000+0  30346-4 0  9995","line2":"2 61631  43.0007 134.7503 0001216 269.5423  90.5289 15.27580383107370","mean_motion":15.27580383,"eccentricity":0.0001216,"inclination_deg":43.0007,"raan_deg":134.7503,"arg_perigee_deg":269.5423,"mean_anomaly_deg":90.5289,"bstar":3.0346e-5,"rev_number":10737,"period_min":94.266725078781,"perigee_km":482.21362911029,"apogee_km":483.88226928993,"semimajor_km":6861.1849492001,"source":"CELESTRAK","updated_at":"2026-09-22T09:00:49.396851Z"}}}